Flag for Germany Weather past 2 weeks in Wittenberg, Saxony-Anhalt, Germany

Now
57 °F

Partly cloudy.


Feels Like: 57 °F
Forecast: 51 / 59 °F
Wind: 5 mph from West

Location: Holzdorf

Current Time: Oct 20, 2014 at 8:33:15 PM

Latest Report: Oct 20, 2014 at 7:20 PM


Visibility: N/A

Pressure: 29.92 "Hg

Humidity: 77%

Dew point: 50 °F

Location of WittenbergLocation

Historic Weather in Wittenberg — Graph

°F

Wittenberg temperature yesterday

Maximum temperature yesterday: 73 °F (at 3:20 PM)
Minimum temperature yesterday: 48 °F (at 5:20 AM)
Average temperature yesterday: 60 °F

Past Weeks' High & Low Weather Summary

 TemperatureHumidityPressure
High73 °F (Oct 9, 4:20 PM)100% (Oct 6, 5:20 AM)30.24 "Hg (Oct 6, 5:20 AM)
Low43 °F (Oct 16, 4:20 AM)49% (Oct 15, 2:20 PM)29.71 "Hg (Oct 9, 5:20 AM)
Average58 °F86%29.89 "Hg
* Reported Oct 5 7:20 PM — Oct 20 7:20 PM, Wittenberg, Weather by CustomWeather, © 2014

Note: Actual official high and low records may vary slightly from our data, if they occured in-between our weather recording intervals... More about our weather records

Advertising

Wittenberg weather history for previous 24 hours

 ConditionsComfort  
Time TempWeatherWind HumidityBarometerVisibility
7:20 PM
Oct 20
57 °FPartly cloudy.5 mph77%29.92 "HgN/A
6:20 PM59 °FPartly sunny.9 mph72%29.92 "HgN/A
5:20 PM61 °FBroken clouds.16 mph68%29.92 "HgN/A
5:00 PM61 °FBroken clouds.12 mph68%29.92 "HgN/A
4:20 PM63 °FPartly sunny.15 mph64%29.92 "HgN/A
3:20 PM63 °FPartly sunny.18 mph64%29.92 "HgN/A
2:20 PM63 °FBroken clouds.20 mph64%29.95 "HgN/A
1:20 PM63 °FPartly sunny.24 mph64%29.95 "HgN/A
12:20 PM63 °FScattered clouds.18 mph64%29.95 "HgN/A
11:20 AM59 °FBroken clouds.17 mph72%29.95 "HgN/A
10:20 AM59 °FBroken clouds.14 mph72%29.95 "HgN/A
9:20 AM57 °FPartly sunny.13 mph77%29.95 "HgN/A
8:20 AM55 °FPassing clouds.14 mph82%29.95 "HgN/A
7:20 AM55 °FPassing clouds.8 mph94%29.92 "HgN/A
5:20 AM55 °FPartly cloudy.5 mph94%29.92 "HgN/A
4:20 AM55 °FPassing clouds.6 mph94%29.95 "HgN/A
3:20 AM55 °FPartly cloudy.6 mph94%29.95 "HgN/A
2:20 AM55 °FPassing clouds.8 mph94%29.95 "HgN/A
1:20 AM59 °FRain. Partly cloudy.14 mph77%29.95 "HgN/A
12:20 AM64 °FPartly cloudy.18 mph78%29.92 "HgN/A
11:20 PM
Oct 19
64 °FPassing clouds.13 mph78%29.92 "HgN/A
10:20 PM64 °FPassing clouds.12 mph78%29.92 "HgN/A
9:20 PM64 °FPassing clouds.13 mph78%29.92 "HgN/A
8:20 PM66 °FPassing clouds.9 mph73%29.92 "HgN/A
Weather by CustomWeather, © 2014

See weather overviewHow to use our weather pages